KLM1605 EHAM-EGNJ

Flight info

Callsign KLM1605
Flight time 0h 42m
Altitude 30000
Route BERGI L60 OTBED
Aircraft E190/M-SDE3GILORVW/S

Departure

Time 2026-04-18 08:54
Airport Amsterdam Airport Schiphol (EHAM)

Arrival

Time 2026-04-18 09:36
Airport Humberside Airport (EGNJ)
Time Latitude Longitude Altitude Speed Heading
2026-04-18 08:27 52.30108 4.75730 -2 ft 0 kts 238°
2026-04-18 08:46 52.30113 4.75742 -2 ft 4 kts 240°
2026-04-18 08:46 52.30126 4.75779 -2 ft 4 kts 223°
2026-04-18 08:46 52.30136 4.75786 -2 ft 4 kts 160°
2026-04-18 08:47 52.30146 4.75779 -2 ft 0 kts 158°
2026-04-18 08:49 52.30139 4.75785 -2 ft 3 kts 151°
2026-04-18 08:49 52.30108 4.75818 -2 ft 7 kts 148°
2026-04-18 08:49 52.30058 4.75871 -2 ft 10 kts 131°
2026-04-18 08:50 52.30015 4.75971 -2 ft 12 kts 117°
2026-04-18 08:50 52.30038 4.76108 -2 ft 14 kts 57°
2026-04-18 08:50 52.30096 4.76257 -2 ft 17 kts 57°
2026-04-18 08:50 52.30162 4.76432 -2 ft 19 kts 59°
2026-04-18 08:51 52.30236 4.76622 -2 ft 21 kts 57°
2026-04-18 08:51 52.30317 4.76836 -2 ft 23 kts 58°
2026-04-18 08:51 52.30402 4.77058 -3 ft 18 kts 58°
2026-04-18 08:51 52.30425 4.77202 -3 ft 12 kts 120°
2026-04-18 08:52 52.30371 4.77310 -4 ft 12 kts 121°
2026-04-18 08:52 52.30331 4.77378 -4 ft 7 kts 163°
2026-04-18 08:52 52.30304 4.77351 -5 ft 6 kts 227°
2026-04-18 08:52 52.30296 4.77330 -5 ft 2 kts 237°
2026-04-18 08:53 52.30286 4.77304 -5 ft 9 kts 237°
2026-04-18 08:53 52.30138 4.76923 -4 ft 76 kts 238°
2026-04-18 08:53 52.29730 4.75857 6 ft 141 kts 238°
2026-04-18 08:53 52.29164 4.74349 524 ft 167 kts 239°
2026-04-18 08:54 52.28524 4.72607 1246 ft 187 kts 239°
2026-04-18 08:54 52.27818 4.70779 2006 ft 195 kts 238°
2026-04-18 08:54 52.26950 4.68979 2677 ft 212 kts 227°
2026-04-18 08:54 52.25850 4.67280 3446 ft 226 kts 224°
2026-04-18 08:55 52.24679 4.65442 4100 ft 242 kts 233°
2026-04-18 08:55 52.23947 4.62953 5098 ft 245 kts 251°
2026-04-18 08:55 52.23407 4.60268 5852 ft 255 kts 252°
2026-04-18 08:55 52.23186 4.57418 6113 ft 259 kts 275°
2026-04-18 08:56 52.23868 4.54698 6117 ft 265 kts 305°
2026-04-18 08:56 52.25297 4.52805 6679 ft 269 kts 323°
2026-04-18 08:56 52.26863 4.51110 7503 ft 271 kts 321°
2026-04-18 08:56 52.28423 4.49362 8292 ft 274 kts 321°
2026-04-18 08:57 52.31696 4.45955 9792 ft 284 kts 324°
2026-04-18 08:57 52.33411 4.44292 10425 ft 294 kts 325°
2026-04-18 08:57 52.35267 4.42594 10678 ft 317 kts 330°
2026-04-18 08:58 52.37488 4.41619 10936 ft 344 kts 348°
2026-04-18 08:58 52.39914 4.41261 11521 ft 353 kts 352°
2026-04-18 08:58 52.42374 4.40953 12302 ft 356 kts 351°
2026-04-18 08:58 52.44799 4.40311 13110 ft 353 kts 336°
2026-04-18 08:59 52.46829 4.38237 13943 ft 345 kts 310°
2026-04-18 08:59 52.48052 4.34949 14703 ft 337 kts 284°
2026-04-18 08:59 52.48716 4.31261 15479 ft 342 kts 290°
2026-04-18 08:59 52.50129 4.28049 16244 ft 355 kts 311°
2026-04-18 09:00 52.51938 4.25254 17005 ft 359 kts 311°
2026-04-18 09:00 52.53645 4.22242 17752 ft 361 kts 306°
2026-04-18 09:00 52.55208 4.18996 18509 ft 363 kts 302°
2026-04-18 09:00 52.56702 4.15637 19165 ft 366 kts 301°
2026-04-18 09:01 52.58188 4.12221 19813 ft 369 kts 300°
2026-04-18 09:01 52.59681 4.08775 20444 ft 372 kts 300°
2026-04-18 09:01 52.61186 4.05297 21039 ft 375 kts 300°
2026-04-18 09:01 52.62703 4.01790 21629 ft 378 kts 299°
2026-04-18 09:02 52.64233 3.98250 22205 ft 381 kts 299°
2026-04-18 09:02 52.65771 3.94686 22784 ft 384 kts 299°
2026-04-18 09:02 52.67321 3.91089 23375 ft 387 kts 298°
2026-04-18 09:02 52.68884 3.87458 23951 ft 390 kts 298°
2026-04-18 09:03 52.70458 3.83794 24486 ft 392 kts 298°
2026-04-18 09:03 52.72039 3.80112 25030 ft 395 kts 298°
2026-04-18 09:03 52.73627 3.76404 25544 ft 397 kts 298°
2026-04-18 09:03 52.75225 3.72668 26061 ft 400 kts 298°
2026-04-18 09:04 52.76834 3.68902 26532 ft 403 kts 298°
2026-04-18 09:04 52.78453 3.65108 26979 ft 405 kts 298°
2026-04-18 09:04 52.80079 3.61292 27420 ft 408 kts 298°
2026-04-18 09:04 52.81719 3.57434 27830 ft 411 kts 298°
2026-04-18 09:05 52.83363 3.53564 28230 ft 413 kts 298°
2026-04-18 09:05 52.85018 3.49664 28617 ft 416 kts 298°
2026-04-18 09:05 52.86685 3.45727 28977 ft 418 kts 298°
2026-04-18 09:05 52.88355 3.41779 29373 ft 419 kts 298°
2026-04-18 09:06 52.90023 3.37831 29892 ft 417 kts 298°
2026-04-18 09:06 52.91678 3.33909 30300 ft 410 kts 298°
2026-04-18 09:06 52.93281 3.30123 30211 ft 392 kts 298°
2026-04-18 09:06 52.94813 3.26495 30176 ft 377 kts 297°
2026-04-18 09:07 52.97583 3.19318 30188 ft 367 kts 287°
2026-04-18 09:07 52.99217 3.11380 30213 ft 363 kts 282°
2026-04-18 09:08 53.00759 3.03397 30224 ft 363 kts 282°
2026-04-18 09:08 53.02291 2.95397 30194 ft 363 kts 282°
2026-04-18 09:09 53.03814 2.87403 30194 ft 363 kts 282°
2026-04-18 09:09 53.05329 2.79414 30195 ft 362 kts 282°
2026-04-18 09:10 53.06841 2.71409 30195 ft 362 kts 281°
2026-04-18 09:10 53.08345 2.63416 30195 ft 362 kts 281°
2026-04-18 09:11 53.09842 2.55421 30192 ft 362 kts 281°
2026-04-18 09:11 53.10956 2.47354 30210 ft 357 kts 273°
2026-04-18 09:12 53.11697 2.39189 30195 ft 356 kts 273°
2026-04-18 09:12 53.12384 2.31084 30192 ft 355 kts 272°
2026-04-18 09:13 53.13279 2.22984 30213 ft 362 kts 285°
2026-04-18 09:13 53.15205 2.15179 30193 ft 364 kts 286°
2026-04-18 09:14 53.17158 2.07388 30184 ft 364 kts 286°
2026-04-18 09:14 53.18143 2.03493 29926 ft 368 kts 286°
2026-04-18 09:14 53.19140 1.99580 29748 ft 365 kts 286°
2026-04-18 09:15 53.20132 1.95670 29347 ft 368 kts 286°
2026-04-18 09:15 53.21134 1.91729 28823 ft 369 kts 286°
2026-04-18 09:15 53.22132 1.87813 28324 ft 365 kts 286°
2026-04-18 09:15 53.23119 1.83932 27844 ft 361 kts 286°
2026-04-18 09:16 53.24089 1.80100 27376 ft 357 kts 286°
2026-04-18 09:16 53.25047 1.76304 26899 ft 354 kts 286°
2026-04-18 09:16 53.25998 1.72526 26432 ft 351 kts 285°
2026-04-18 09:16 53.26942 1.68770 25970 ft 349 kts 285°
2026-04-18 09:17 53.27878 1.65038 25501 ft 347 kts 285°
2026-04-18 09:17 53.28806 1.61331 25036 ft 345 kts 285°
2026-04-18 09:17 53.29718 1.57685 24588 ft 343 kts 285°
2026-04-18 09:17 53.30632 1.54021 24135 ft 340 kts 285°
2026-04-18 09:18 53.31539 1.50379 23665 ft 338 kts 285°
2026-04-18 09:18 53.32437 1.46768 23235 ft 334 kts 285°
2026-04-18 09:18 53.33322 1.43194 22782 ft 333 kts 284°
2026-04-18 09:18 53.34203 1.39628 22343 ft 331 kts 284°
2026-04-18 09:19 53.35079 1.36074 21910 ft 329 kts 284°
2026-04-18 09:19 53.35950 1.32543 21485 ft 328 kts 284°
2026-04-18 09:19 53.36816 1.29019 21044 ft 326 kts 284°
2026-04-18 09:19 53.37677 1.25515 20610 ft 324 kts 284°
2026-04-18 09:20 53.38531 1.22029 20174 ft 322 kts 284°
2026-04-18 09:20 53.39377 1.18575 19753 ft 320 kts 284°
2026-04-18 09:20 53.40218 1.15130 19335 ft 318 kts 284°
2026-04-18 09:20 53.41052 1.11710 18897 ft 316 kts 284°
2026-04-18 09:21 53.41879 1.08309 18491 ft 314 kts 284°
2026-04-18 09:21 53.42701 1.04923 18061 ft 311 kts 284°
2026-04-18 09:21 53.43514 1.01571 17662 ft 310 kts 284°
2026-04-18 09:21 53.44311 0.98270 17250 ft 308 kts 284°
2026-04-18 09:22 53.45114 0.94940 16844 ft 307 kts 284°
2026-04-18 09:22 53.45927 0.91578 16422 ft 306 kts 284°
2026-04-18 09:22 53.46723 0.88278 16019 ft 304 kts 284°
2026-04-18 09:22 53.47502 0.85041 15619 ft 303 kts 284°
2026-04-18 09:23 53.48283 0.81775 15221 ft 301 kts 285°
2026-04-18 09:23 53.49064 0.78521 14818 ft 299 kts 285°
2026-04-18 09:23 53.49836 0.75286 14422 ft 297 kts 285°
2026-04-18 09:23 53.50596 0.72100 14026 ft 291 kts 285°
2026-04-18 09:24 53.51343 0.68972 13638 ft 285 kts 285°
2026-04-18 09:24 53.52073 0.65915 13273 ft 279 kts 285°
2026-04-18 09:24 53.52792 0.62911 12904 ft 275 kts 286°
2026-04-18 09:24 53.53503 0.59929 12538 ft 274 kts 286°
2026-04-18 09:25 53.54207 0.56954 12180 ft 274 kts 286°
2026-04-18 09:25 53.54913 0.53965 11809 ft 275 kts 287°
2026-04-18 09:25 53.55615 0.50986 11449 ft 274 kts 287°
2026-04-18 09:25 53.56313 0.48006 11076 ft 273 kts 287°
2026-04-18 09:26 53.57008 0.45046 10715 ft 271 kts 288°
2026-04-18 09:26 53.57698 0.42114 10359 ft 269 kts 288°
2026-04-18 09:26 53.58383 0.39195 9989 ft 267 kts 288°
2026-04-18 09:26 53.59062 0.36295 9630 ft 265 kts 288°
2026-04-18 09:27 53.59734 0.33415 9282 ft 264 kts 289°
2026-04-18 09:27 53.60404 0.30544 8935 ft 263 kts 289°
2026-04-18 09:27 53.61069 0.27691 8588 ft 262 kts 289°
2026-04-18 09:27 53.61733 0.24833 8253 ft 261 kts 289°
2026-04-18 09:28 53.62393 0.21990 7896 ft 261 kts 289°
2026-04-18 09:28 53.63051 0.19151 7543 ft 259 kts 289°
2026-04-18 09:28 53.63703 0.16333 7135 ft 259 kts 289°
2026-04-18 09:28 53.64362 0.13475 6647 ft 261 kts 290°
2026-04-18 09:29 53.65012 0.10665 6317 ft 256 kts 290°
2026-04-18 09:29 53.65651 0.07891 5980 ft 252 kts 290°
2026-04-18 09:29 53.66283 0.05144 5656 ft 249 kts 290°
2026-04-18 09:29 53.66906 0.02426 5330 ft 248 kts 290°
2026-04-18 09:30 53.67527 -0.00288 5000 ft 248 kts 290°
2026-04-18 09:30 53.67936 -0.02079 4771 ft 248 kts 290°
2026-04-18 09:30 53.68554 -0.04778 4455 ft 246 kts 290°
2026-04-18 09:30 53.69169 -0.07460 4123 ft 244 kts 290°
2026-04-18 09:31 53.69781 -0.10128 3806 ft 243 kts 290°
2026-04-18 09:31 53.70255 -0.12843 3491 ft 241 kts 279°
2026-04-18 09:31 53.70427 -0.15645 3174 ft 239 kts 274°
2026-04-18 09:31 53.70555 -0.18437 2865 ft 239 kts 275°
2026-04-18 09:32 53.70735 -0.21220 2518 ft 238 kts 276°
2026-04-18 09:32 53.70933 -0.23960 2265 ft 230 kts 272°
2026-04-18 09:32 53.70488 -0.26289 2619 ft 201 kts 225°
2026-04-18 09:32 53.69192 -0.27295 2930 ft 218 kts 199°
2026-04-18 09:33 53.67656 -0.27938 2249 ft 228 kts 201°
2026-04-18 09:33 53.66258 -0.28921 1899 ft 205 kts 211°
2026-04-18 09:33 53.65042 -0.29847 1620 ft 182 kts 206°
2026-04-18 09:33 53.63921 -0.30555 1393 ft 158 kts 207°
2026-04-18 09:34 53.63000 -0.31218 1165 ft 134 kts 210°
2026-04-18 09:34 53.62188 -0.31785 972 ft 122 kts 208°
2026-04-18 09:34 53.61406 -0.32329 833 ft 123 kts 210°
2026-04-18 09:34 53.60608 -0.32886 649 ft 124 kts 209°
2026-04-18 09:35 53.59814 -0.33430 445 ft 126 kts 211°
2026-04-18 09:35 53.58992 -0.34002 279 ft 129 kts 209°
2026-04-18 09:35 53.58176 -0.34560 108 ft 125 kts 209°
2026-04-18 09:35 53.57478 -0.35045 99 ft 88 kts 203°
2026-04-18 09:36 53.57045 -0.35354 109 ft 53 kts 202°
2026-04-18 09:36 53.56794 -0.35524 119 ft 29 kts 203°
2026-04-18 09:36 53.56629 -0.35638 123 ft 18 kts 204°
2026-04-18 09:36 53.56572 -0.35722 125 ft 7 kts 214°
2026-04-18 09:37 53.56560 -0.35694 127 ft 3 kts 70°
2026-04-18 09:37 53.56588 -0.35665 123 ft 7 kts 22°
2026-04-18 09:37 53.56651 -0.35622 123 ft 13 kts 22°
2026-04-18 09:37 53.56761 -0.35547 120 ft 21 kts 22°
2026-04-18 09:38 53.56909 -0.35446 115 ft 25 kts 21°
2026-04-18 09:38 53.57082 -0.35327 109 ft 28 kts 22°
2026-04-18 09:38 53.57273 -0.35193 102 ft 31 kts 22°
2026-04-18 09:38 53.57482 -0.35049 98 ft 33 kts 22°
2026-04-18 09:39 53.57690 -0.34907 96 ft 32 kts 22°
2026-04-18 09:39 53.57897 -0.34763 88 ft 28 kts 22°
2026-04-18 09:39 53.58060 -0.34746 85 ft 25 kts 330°
2026-04-18 09:39 53.58180 -0.34929 85 ft 20 kts 303°
2026-04-18 09:40 53.58246 -0.35002 84 ft 7 kts 21°
2026-04-18 09:40 53.58298 -0.34960 84 ft 7 kts 25°
2026-04-18 09:40 53.58302 -0.34957 83 ft 0 kts 25°